STARLINK-1203 (45202 NORAD) Tracking and Keplerian Element Data

This shows tracking and keplerian element data for the satellite.

Feedback or suggestion? Click here.




ElementValue
Catalog45202
NameSTARLINK-1203
Epoch Orbit652
Epoch Day88.25001157
Epoch Year2020
RAAN78.0121
Inclination53.0012
Eccentricity0.0001368
Argument of Perigee99.184
Mean Anonmoly216.8892
Mean Motion15.18785412
Decay Rate-0.00122559
L11 45202U 20012AA 20088.25001157 -.00122559 00000-0 -59041-2 0 9994
L22 45202 53.0012 78.0121 0001368 99.1840 216.8892 15.18785412 6525

Live tracking and technical data element details for STARLINK-1203 (NORAD 45202). STARLINK-1203 can be tracked NOW for your location showing map with azimuth and elevation plus other details from your city location.

Track the satellite on the map from your city or location and see movement details for azimuth, elevation, latitude, longitude, range, height, and movement on the map or in text.







IsCatalogInMostPopularTable: catalog: 45202, numindb: 6
Update: records affected: 1



GetName: 45202 STARLINK-1203

Hit Count: updated at: Tue, 31 Mar 2020 13:11:22 GMT